Temp
25 24 24 25 25 24 24 22 23 21 21 21 21 21 20 19 19 18 19 17 16 16 16 15 14 14 13 13 13 12 13 12 12 12 12 12 12 11 11 11 12 10 9
25 24 24 23 24 24 24 24 22 21 21 21 21 21 20 19 20 18 18 16 16 15 14 14 14 13 13 13 12 12 12 11 11 11 12 11 11 11 10 10 10 10 9
25 24 24 23 23 23 22 22 22 21 20 20 20 20 20 19 18 18 16 16 15 15 14 14 14 13 13 13 13 12 11 11 11 11 10 10 10 10 10 9 9 8 9
26 25 24 23 23 22 21 21 21 20 20 20 19 20 20 19 17 16 16 15 15 14 14 14 13 13 13 13 12 11 11 11 11 10 10 10 9 8 8 7 8 8 10
26 25 24 24 23 21 21 21 21 20 20 19 19 20 19 19 17 17 16 15 15 14 14 13 13 13 13 12 12 11 11 11 10 10 10 9 8 8 7 7 8 10 10
27 25 24 23 22 21 21 21 20 20 20 19 20 19 18 17 17 16 16 15 15 14 14 13 13 13 13 13 12 11 11 10 9 9 9 9 9 8 6 7 9 10 10
26 25 24 23 22 21 20 20 20 20 20 19 18 17 17 16 16 17 16 15 15 14 14 13 13 13 13 13 12 11 11 11 9 9 9 8 8 7 7 8 9 10 10
25 24 23 22 21 21 21 20 20 20 19 18 18 17 16 16 16 16 16 16 16 15 14 13 13 13 12 12 11 11 11 10 10 10 9 8 8 8 8 8 8 9 11
23 23 22 21 21 20 20 19 19 18 18 17 17 16 16 15 15 15 15 16 15 14 13 13 13 13 12 12 12 11 10 10 10 10 9 9 9 9 8 8 8 8 8
22 21 21 20 19 20 20 18 18 18 17 17 16 16 16 15 15 15 16 15 14 14 14 13 13 13 12 12 11 10 10 10 10 10 9 9 10 9 8 7 7 7 7
22 21 21 19 20 22 20 19 19 18 17 18 18 17 16 16 17 15 16 15 14 14 13 12 12 12 12 11 10 9 9 9 10 10 10 9 10 9 9 8 7 7 7
21 21 20 20 19 18 19 19 19 18 19 17 16 15 15 16 16 15 15 14 13 13 13 12 12 12 11 10 9 9 9 9 9 9 9 8 9 9 9 8 7 7 7
20 19 19 18 18 18 17 17 16 16 16 17 17 15 14 15 15 15 14 13 13 13 13 12 11 11 10 10 9 9 9 9 9 8 8 8 9 9 9 9 8 8 8
19 19 19 19 18 17 17 17 16 16 17 16 15 14 14 14 15 14 14 13 12 13 12 11 11 11 10 10 9 8 8 9 8 8 8 8 8 9 9 10 9 9 9
18 18 17 19 19 18 17 17 16 17 17 16 15 14 14 13 13 13 13 12 12 12 12 11 11 10 10 9 9 8 8 8 7 7 8 8 9 9 9 9 9 9 8
19 19 18 19 19 18 17 17 17 16 16 15 14 15 15 14 13 13 13 12 13 12 11 11 10 9 9 8 8 8 7 7 7 7 7 8 8 9 9 9 9 9 8
18 18 18 16 16 16 16 15 16 14 14 14 14 14 14 14 13 13 12 12 12 11 11 10 9 8 8 8 7 7 6 6 6 6 6 7 8 8 8 8 9 9 8
18 18 17 16 16 16 15 14 14 13 14 13 13 13 13 13 12 12 12 12 11 11 10 9 8 7 7 7 6 6 6 7 7 6 7 7 7 8 8 8 8 8 8
16 16 16 15 15 15 14 14 14 13 13 14 13 12 12 12 11 12 12 11 11 10 9 8 8 7 7 6 6 6 6 6 6 6 6 6 7 7 7 7 8 8 8
15 16 16 16 15 15 15 14 14 13 12 13 12 11 11 11 11 11 10 10 10 9 8 8 7 7 6 6 6 6 6 6 5 5 6 6 7 7 7 7 7 8 8
16 16 16 16 16 16 15 15 14 13 12 12 10 11 11 11 11 11 10 10 9 8 8 7 7 6 6 6 6 6 6 5 5 5 6 6 7 7 7 7 7 7 8
16 16 16 16 16 16 16 15 14 13 13 13 12 11 11 11 11 11 10 9 8 7 7 7 6 6 5 5 5 6 5 5 5 5 5 5 6 6 7 7 7 6 7
17 17 17 17 16 16 15 15 14 13 13 13 13 12 11 11 10 10 10 9 8 7 6 6 6 5 5 5 6 7 7 7 7 5 5 5 5 6 6 6 6 6 6
17 17 18 17 17 16 15 14 14 14 12 13 12 11 10 10 10 10 9 8 7 7 6 6 6 6 5 6 6 7 7 7 6 5 5 5 5 5 6 6 6 6 6
17 17 16 16 16 16 15 14 14 14 13 12 12 11 11 10 9 10 9 8 7 7 6 5 5 6 6 6 6 6 6 6 6 5 5 5 4 5 5 6 6 6 6
15 15 15 15 14 15 14 14 13 13 13 12 12 11 11 10 9 9 9 8 7 6 6 5 4 4 6 5 6 6 6 6 5 4 4 4 4 5 5 5 5 6 5
Height
1501 1505 1508 1511 1516 1519 1523 1526 1529 1533 1535 1536 1534 1536 1537 1539 1539 1539 1537 1542 1541 1539 1538 1536 1536 1536 1534 1533 1529 1526 1523 1519 1513 1507 1503 1497 1491 1485 1478 1469 1458 1448 1441
1496 1499 1502 1506 1510 1513 1515 1520 1524 1526 1529 1529 1530 1531 1533 1533 1536 1535 1536 1537 1536 1534 1535 1535 1535 1533 1532 1530 1526 1522 1517 1514 1509 1502 1497 1491 1486 1478 1468 1456 1445 1436 1429
1491 1493 1497 1500 1503 1506 1509 1514 1517 1521 1523 1525 1525 1526 1528 1531 1533 1530 1534 1535 1534 1533 1532 1533 1532 1530 1528 1526 1521 1517 1514 1509 1505 1499 1491 1488 1480 1471 1454 1444 1432 1423 1417
1483 1487 1489 1494 1497 1500 1504 1508 1511 1514 1518 1519 1520 1522 1525 1528 1528 1530 1533 1531 1532 1532 1532 1531 1530 1528 1524 1523 1518 1514 1510 1506 1499 1494 1489 1482 1474 1463 1450 1436 1421 1415 1408
1476 1480 1482 1488 1492 1495 1498 1502 1506 1509 1511 1513 1515 1517 1518 1516 1518 1522 1525 1526 1526 1529 1529 1529 1529 1525 1522 1518 1513 1510 1506 1503 1495 1489 1485 1478 1468 1454 1442 1430 1418 1408 1400
1471 1474 1478 1483 1487 1491 1494 1498 1502 1504 1506 1507 1508 1510 1513 1516 1515 1522 1523 1526 1526 1527 1525 1527 1525 1523 1519 1514 1512 1509 1505 1500 1494 1488 1484 1476 1466 1454 1438 1425 1415 1405 1398
1466 1470 1474 1479 1483 1487 1491 1494 1496 1498 1501 1503 1506 1508 1511 1512 1516 1516 1519 1521 1519 1521 1522 1522 1521 1517 1513 1510 1508 1505 1502 1499 1494 1488 1482 1477 1467 1452 1437 1425 1414 1407 1401
1461 1466 1470 1476 1481 1485 1489 1492 1494 1495 1500 1505 1509 1512 1513 1514 1517 1518 1518 1518 1520 1519 1519 1518 1516 1514 1508 1506 1503 1500 1498 1496 1490 1485 1481 1476 1470 1455 1440 1428 1416 1406 1398
1458 1464 1470 1476 1481 1485 1489 1491 1494 1497 1501 1503 1500 1513 1517 1518 1517 1516 1517 1517 1518 1518 1517 1515 1513 1510 1507 1503 1499 1496 1494 1491 1487 1483 1478 1475 1468 1457 1443 1428 1415 1406 1397
1460 1464 1469 1474 1477 1481 1486 1490 1493 1496 1499 1507 1509 1503 1513 1517 1517 1518 1515 1517 1517 1515 1516 1512 1509 1509 1505 1501 1496 1493 1489 1486 1482 1478 1475 1473 1467 1458 1446 1434 1423 1412 1404
1458 1463 1468 1472 1476 1477 1479 1487 1486 1481 1492 1494 1500 1495 1499 1502 1504 1511 1511 1513 1514 1512 1512 1509 1507 1506 1503 1498 1496 1491 1488 1484 1481 1478 1475 1471 1464 1457 1450 1440 1430 1420 1411
1458 1463 1469 1473 1471 1480 1474 1475 1488 1492 1488 1493 1501 1500 1502 1500 1499 1503 1506 1510 1511 1511 1509 1505 1505 1503 1501 1497 1495 1492 1487 1483 1480 1478 1474 1470 1463 1457 1452 1446 1438 1428 1416
1459 1463 1466 1469 1476 1480 1486 1484 1484 1493 1493 1496 1501 1503 1498 1500 1504 1505 1504 1507 1507 1508 1507 1507 1502 1501 1500 1498 1495 1491 1487 1483 1480 1478 1474 1470 1466 1461 1455 1449 1443 1435 1423
1461 1463 1469 1466 1470 1478 1483 1482 1484 1486 1485 1491 1494 1498 1502 1499 1497 1503 1504 1503 1505 1504 1505 1503 1503 1501 1500 1498 1494 1490 1487 1483 1481 1479 1476 1472 1468 1463 1457 1452 1446 1441 1431
1463 1465 1468 1467 1471 1475 1476 1480 1483 1485 1486 1485 1486 1494 1499 1498 1499 1503 1501 1501 1504 1504 1504 1504 1502 1500 1499 1496 1494 1491 1487 1484 1482 1480 1477 1473 1469 1466 1461 1456 1451 1448 1441
1461 1464 1467 1468 1470 1472 1473 1474 1477 1482 1480 1485 1488 1490 1493 1496 1498 1500 1500 1501 1503 1503 1504 1503 1500 1499 1497 1495 1493 1491 1488 1486 1484 1482 1479 1475 1471 1468 1465 1461 1457 1453 1450
1465 1465 1467 1470 1471 1472 1475 1477 1473 1478 1481 1482 1487 1489 1491 1496 1496 1496 1499 1501 1501 1503 1503 1501 1499 1497 1495 1494 1492 1491 1489 1487 1485 1483 1480 1477 1474 1470 1468 1466 1462 1458 1455
1462 1464 1465 1468 1470 1472 1475 1477 1475 1477 1478 1481 1484 1487 1491 1493 1494 1495 1499 1501 1502 1503 1502 1500 1498 1496 1494 1493 1492 1491 1489 1487 1485 1484 1482 1479 1477 1474 1470 1468 1466 1464 1461
1461 1462 1464 1466 1468 1469 1473 1475 1477 1479 1479 1481 1484 1486 1489 1491 1494 1497 1500 1502 1504 1503 1502 1499 1497 1496 1494 1493 1493 1492 1491 1489 1487 1486 1484 1482 1480 1478 1474 1471 1469 1467 1466
1461 1462 1462 1466 1469 1470 1472 1474 1477 1479 1480 1482 1483 1485 1488 1492 1496 1498 1501 1502 1503 1502 1501 1499 1497 1496 1494 1493 1493 1493 1492 1490 1488 1487 1486 1484 1482 1480 1478 1476 1473 1471 1468
1460 1462 1463 1464 1467 1469 1471 1474 1476 1478 1481 1482 1484 1484 1489 1493 1497 1499 1501 1503 1502 1501 1499 1498 1499 1497 1496 1494 1493 1493 1492 1491 1489 1487 1487 1486 1484 1481 1481 1479 1478 1475 1473
1461 1461 1463 1464 1464 1466 1467 1471 1475 1476 1479 1482 1484 1487 1491 1493 1497 1500 1501 1501 1500 1499 1498 1498 1498 1497 1496 1495 1493 1492 1491 1490 1488 1488 1487 1487 1485 1484 1483 1482 1480 1479 1476
1460 1461 1463 1464 1465 1465 1466 1469 1474 1476 1478 1481 1482 1487 1491 1494 1497 1499 1500 1500 1499 1499 1499 1499 1499 1498 1497 1495 1493 1492 1491 1490 1488 1488 1488 1488 1488 1486 1485 1484 1483 1481 1480
1458 1460 1461 1463 1463 1465 1466 1469 1471 1475 1476 1479 1481 1485 1491 1493 1495 1497 1499 1500 1500 1500 1500 1499 1498 1497 1497 1496 1495 1493 1492 1491 1490 1489 1489 1487 1489 1488 1487 1486 1485 1484 1483
1457 1458 1460 1461 1464 1464 1466 1467 1470 1473 1476 1479 1482 1486 1488 1491 1495 1498 1498 1499 1501 1501 1501 1500 1499 1498 1498 1497 1496 1494 1493 1492 1491 1490 1491 1490 1490 1489 1489 1488 1488 1486 1486
1456 1457 1459 1462 1463 1464 1466 1467 1469 1472 1475 1478 1480 1484 1487 1490 1494 1497 1499 1500 1501 1501 1501 1501 1501 1499 1498 1497 1496 1496 1495 1493 1493 1492 1491 1491 1490 1490 1489 1490 1490 1489 1488
Wind_Speed
43 42 39 39 37 36 34 35 32 29 26 29 35 35 27 18 18 22 20 15 17 16 13 12 9 15 16 21 21 19 26 26 30 35 37 40 40 40 47 53 52 52 42
43 43 41 38 37 37 37 35 35 32 32 35 32 31 27 19 18 21 18 11 12 13 9 9 14 13 19 22 20 27 21 24 27 35 39 41 42 49 54 57 54 45 42
44 43 42 39 36 36 35 33 31 32 30 33 33 30 27 20 19 20 15 12 14 12 10 11 14 14 18 19 27 26 26 23 31 34 37 41 42 53 61 57 55 51 42
43 43 42 40 38 37 33 30 28 26 26 28 28 28 24 19 19 17 11 12 14 9 8 12 13 14 18 23 25 24 25 31 31 30 36 40 50 56 58 49 54 47 41
40 40 41 37 35 32 31 30 27 24 24 25 26 26 20 22 19 14 12 15 10 7 12 12 11 17 19 19 24 26 29 31 26 31 33 39 53 64 52 50 47 40 38
37 39 36 33 31 31 28 23 22 24 22 24 26 21 20 17 12 13 16 11 10 12 9 11 15 16 18 25 25 25 24 22 25 27 32 38 50 61 48 44 39 38 32
36 36 33 31 27 23 24 23 24 24 24 23 21 20 17 15 13 17 17 15 16 9 10 13 18 17 25 26 26 29 24 19 18 24 27 34 47 52 42 39 31 27 27
32 32 29 27 24 25 26 25 23 21 18 17 16 14 16 15 15 13 14 13 11 11 10 11 20 21 24 26 27 31 24 20 21 21 22 30 39 52 38 33 32 26 22
29 26 23 24 26 23 21 19 15 16 15 15 12 13 11 15 14 11 11 10 7 9 9 13 17 20 23 24 29 26 22 21 21 17 19 27 34 42 42 34 35 35 35
21 23 27 25 20 19 18 14 13 10 10 10 10 12 12 10 10 11 9 9 5 7 11 13 16 19 21 27 23 20 22 24 25 20 20 27 31 36 43 41 35 38 36
24 26 24 22 20 19 16 15 17 19 18 15 16 14 15 11 11 15 10 11 10 8 10 10 16 22 22 16 16 19 20 21 18 21 19 28 28 31 36 44 39 36 39
21 21 19 18 18 17 18 18 13 16 13 16 12 14 16 16 13 14 10 11 10 10 8 12 16 15 14 14 16 19 19 22 15 22 21 26 30 27 30 34 41 36 38
20 21 21 19 13 13 12 10 16 13 10 12 13 18 18 14 11 12 13 10 8 8 7 12 12 14 15 16 14 16 18 18 16 21 27 25 34 26 25 29 31 38 41
24 22 17 18 16 16 10 11 12 15 15 14 18 19 17 16 13 8 6 3 2 7 12 7 9 11 11 12 14 15 20 17 14 19 21 21 21 33 30 27 27 35 39
19 18 16 15 14 16 17 15 17 16 14 15 16 17 13 13 16 8 2 3 4 9 4 5 5 7 9 11 12 16 19 18 18 19 20 21 23 25 33 22 26 27 38
18 17 15 14 15 16 19 21 19 16 16 16 14 14 10 10 14 13 5 7 5 3 5 4 5 7 9 11 11 11 15 15 17 16 16 19 23 25 24 34 22 26 29
13 12 10 10 11 17 18 18 15 15 11 11 9 9 6 8 12 9 4 1 4 7 3 4 5 6 8 9 9 11 12 13 10 13 15 12 17 20 25 22 31 26 26
12 11 13 13 14 11 12 15 14 14 10 12 12 9 9 8 8 6 5 6 7 5 3 2 4 7 7 9 10 11 13 15 16 19 21 23 19 17 21 22 20 24 25
9 11 10 10 7 9 9 9 7 10 9 9 12 12 10 10 9 8 8 8 3 2 2 5 5 6 7 7 9 13 14 16 15 14 17 16 17 22 23 23 16 18 19
6 11 8 12 7 10 7 6 12 15 11 7 12 15 15 13 11 8 8 4 3 3 3 5 9 8 10 9 8 10 9 12 11 12 16 16 16 17 18 21 22 15 21
4 11 10 9 8 10 11 8 8 12 11 6 10 11 16 12 8 7 6 5 3 1 2 7 3 4 4 6 5 8 7 8 10 9 13 16 12 17 17 16 18 19 16
8 6 8 7 14 13 9 12 11 14 17 14 15 8 19 13 9 10 7 4 2 2 4 6 4 5 6 6 6 3 3 4 7 8 13 14 14 15 14 16 16 18 19
5 10 7 4 12 8 8 9 10 12 17 18 22 17 16 11 11 10 11 6 1 2 5 6 4 4 6 5 7 8 8 8 7 6 10 13 10 14 13 14 14 16 16
7 6 5 6 9 9 10 16 13 10 18 22 18 15 16 15 14 15 5 6 5 3 2 2 3 2 2 4 8 9 10 9 8 8 8 13 10 13 12 11 13 14 14
6 8 5 7 8 9 5 8 9 15 19 18 14 17 21 15 15 11 10 5 6 7 5 2 5 4 5 7 8 10 10 9 9 10 10 12 8 11 10 11 11 12 13
6 6 5 4 5 4 6 11 14 17 20 20 22 20 15 17 17 12 7 8 6 5 5 4 4 2 7 8 9 10 9 9 7 9 10 8 8 9 12 10 10 11 13
Wind_Direction
235 239 238 239 239 240 238 238 240 240 242 232 246 255 263 252 267 280 277 252 256 270 276 281 294 303 317 309 325 320 307 309 313 311 315 321 325 325 313 316 318 317 315
227 235 239 239 241 242 243 243 238 241 237 241 248 256 260 248 273 278 274 252 259 276 279 282 283 301 310 324 313 309 321 312 313 314 321 327 327 327 324 321 321 323 318
222 229 234 238 239 241 241 244 246 238 239 243 249 253 256 254 272 274 262 259 256 250 265 270 291 306 320 308 311 322 324 320 319 326 325 329 329 336 333 327 326 325 322
219 225 231 234 239 240 240 241 244 244 241 238 244 258 268 254 268 264 270 260 273 263 279 274 296 317 302 316 316 324 315 319 327 334 327 332 336 336 334 324 324 326 323
213 221 228 233 237 234 234 239 240 240 235 233 234 257 250 251 252 254 235 246 264 262 257 287 306 294 324 318 319 321 323 321 333 331 331 335 339 342 332 332 328 329 332
213 216 222 230 233 230 231 227 224 228 230 235 246 241 241 243 228 233 243 258 235 251 290 299 288 321 303 309 317 319 323 327 332 330 330 331 333 342 338 335 332 337 323
212 213 219 223 225 222 217 216 218 218 224 232 236 228 226 218 219 220 237 250 248 261 270 289 300 308 316 328 328 328 328 329 335 329 330 333 331 349 344 342 339 341 330
205 206 214 219 213 210 217 219 215 225 227 227 220 223 214 224 229 241 248 254 266 289 308 294 313 322 318 316 320 324 329 332 337 342 333 348 342 354 348 353 0 352 335
200 205 202 205 204 211 211 211 212 219 219 225 202 213 211 226 243 249 263 266 291 323 309 306 319 306 305 308 319 324 329 338 342 351 342 345 346 358 6 1 10 9 355
183 184 193 199 192 190 194 196 196 205 199 205 187 184 215 243 258 278 268 268 269 292 291 318 310 305 307 318 327 334 341 342 348 1 349 338 344 358 9 15 21 18 10
185 191 195 182 186 182 168 178 186 175 179 192 212 199 195 220 245 250 244 258 265 277 294 312 300 308 320 333 345 356 353 344 358 5 350 344 351 7 5 11 16 29 20
189 175 167 172 164 173 175 179 204 207 185 188 192 184 207 234 230 231 241 262 279 299 303 290 311 336 356 358 0 3 355 350 7 7 349 350 357 5 8 2 8 25 39
166 153 165 162 167 178 196 182 172 183 182 196 211 216 212 230 232 247 242 260 281 301 318 328 358 6 3 4 9 353 341 356 16 5 356 8 10 9 19 11 11 18 45
162 166 171 160 155 165 173 171 170 195 195 213 223 220 222 228 236 244 225 245 293 330 335 351 7 4 356 354 2 348 347 8 17 13 359 9 5 12 22 23 18 12 34
160 155 154 150 161 175 179 188 197 203 217 219 215 225 233 207 228 220 171 196 279 317 358 33 340 348 356 357 14 358 355 16 24 15 15 17 27 8 21 30 40 19 29
152 154 156 168 180 190 195 195 195 220 214 227 219 223 210 216 211 216 239 242 294 23 62 1 356 5 7 5 10 12 356 21 19 9 19 25 27 27 13 22 37 41 33
150 165 165 175 189 196 205 217 214 206 206 218 208 193 197 227 210 222 240 233 65 75 55 10 7 12 11 7 6 10 10 1 14 16 10 18 30 40 30 21 31 33 40
169 173 186 195 199 224 232 229 222 204 207 193 191 198 210 215 210 193 140 88 78 66 358 12 20 6 13 8 7 12 11 16 31 33 30 34 29 33 38 33 31 32 33
133 137 127 164 141 149 181 205 188 173 178 201 206 192 189 180 160 148 132 98 124 140 73 13 23 24 2 24 21 24 15 6 24 27 29 28 26 17 28 28 34 46 38
149 168 156 149 147 162 147 149 173 168 187 202 188 185 173 164 153 135 111 129 166 131 101 41 11 19 11 19 44 33 14 354 18 29 36 21 38 30 29 28 18 47 48
140 184 174 159 159 178 181 194 194 179 172 182 175 190 174 139 144 143 156 138 129 110 90 105 63 33 35 0 39 43 11 5 8 32 46 22 38 37 28 37 27 26 59
180 163 183 198 198 185 173 179 201 171 177 165 179 181 150 145 171 166 173 159 142 119 51 87 50 38 30 26 354 55 352 359 18 41 49 33 24 47 36 28 40 27 43
189 180 156 155 166 183 181 185 191 183 176 181 193 185 171 165 169 172 166 166 102 61 90 96 63 69 36 0 11 28 22 20 16 40 73 44 31 44 36 37 36 38 40
179 187 189 204 178 156 137 151 159 170 187 182 186 178 165 180 174 172 171 147 147 134 119 120 136 122 93 13 26 28 26 26 35 69 71 61 21 49 37 49 31 47 39
216 177 143 131 168 165 172 206 208 191 176 173 168 162 186 196 167 156 168 162 146 145 130 73 11 10 39 31 31 30 29 36 53 76 76 65 25 79 46 48 46 48 49
137 128 129 144 149 202 171 189 185 176 165 173 186 187 198 171 159 168 171 161 161 135 148 158 136 334 22 35 38 33 33 42 65 79 63 56 43 84 76 58 53 57 52